If you wish to contribute or participate in the discussions about articles you are invited to join SKYbrary as a registered user

 Actions

Arvidsjaur Airport

From SKYbrary Wiki

ESNX
Airport
ICAO: ESNX – IATA: AJR
Summary
Name Arvidsjaur Airport
Region Europe
Territory Sweden SE.gif
Location Arvidsjaur, Arvidsjaur
Serving Arvidsjaur
Elevation 379.476 m
1,245 ft
1,245 ft379.476 m
Coordinates 65° 35' 31.7886", 19° 15' 51.1366"
Runways
Designator Length Width Surface ROPS
12/30 2500 m8,202.1 ft 45 m147.638 ft ASP /


METAR
Observation ESNX 191350Z AUTO 28019KT 9999 DZ BKN010/// BKN044/// 08/07 Q0989 REDZ
Station ARVIDSJAUR
Date/Time 19 June 2018 13:50:00
Wind direction 280°
Wind speed 19 kts
Lowest cloud amount broken clouds
Temperature 8°C
Dew point 7°C
Humidity 93%
QNH 989 hPa
Weather condition drizzle

Arvidsjaur Airport is situated 13 km7.019 nm
13,000 m
42,650.919 ft
from Arvidsjaur town in Sweden.

Climatology

Subarctic climate (Köppen climate classification Dfc)

Maps

Terrain

Loading map...

Airport Layout

Loading map...


Accidents & Serious Incidents at or in vicinity of ESNX

None on SKYbrary